Le nostre stazioni meteo in Italia

Pubblicità
Il mio iltempo24.it
Gela, Italia (16453): Temperatura & dewpoint: 11.02.2019 13:00:00 - 17.02.2019 13:00:00 (CET)Gela, Italia (16453): velocità del vento: 11.02.2019 13:00:00 - 17.02.2019 13:00:00 (CET)Gela, Italia (16453): direzione del vento: 11.02.2019 13:00:00 - 17.02.2019 13:00:00 (CET)Gela, Italia (16453): reduced air pressure: 11.02.2019 13:00:00 - 17.02.2019 13:00:00 (CET)Gela, Italia (16453): visibility: 11.02.2019 13:00:00 - 17.02.2019 13:00:00 (CET)Gela, Italia (16453): ore di luce: 11.02.2019 13:00:00 - 17.02.2019 13:00:00 (CET)
Data & Tempo tt [°C] td [°C] ff [km/h] ff [kn] dd ppp [hPa] vv [km] sd [min]
17.02.2019 13:00:00 13,8 2,4 13 7 SSO 1028,6 25 60
17.02.2019 12:00:00 14,0 4,0 8 4 SO - 10 -
17.02.2019 11:00:00 14,0 4,0 4 2 OSO - 10 -
17.02.2019 10:00:00 12,2 4,4 2 1 NNE 1029,7 20 60
17.02.2019 09:00:00 10,0 4,0 5 3 NE - 10 -
17.02.2019 08:00:00 9,0 3,0 8 4 NNE - 10 -
17.02.2019 07:00:00 9,6 3,1 5 3 NNE 1028,8 15 0
17.02.2019 06:00:00 - - - - - - - -
17.02.2019 05:00:00 - - - - - - - -
17.02.2019 04:00:00 - - - - - - - -
17.02.2019 03:00:00 - - - - - - - -
17.02.2019 02:00:00 - - - - - - - -
17.02.2019 01:00:00 - - - - - - - -
17.02.2019 00:00:00 - - - - - - - -
16.02.2019 23:00:00 - - - - - - - -
16.02.2019 22:00:00 - - - - - - - -
16.02.2019 21:00:00 - - - - - - - -
16.02.2019 20:00:00 - - - - - - - -
16.02.2019 19:00:00 12,0 1,9 5 3 NE 1026,5 10 0
16.02.2019 18:00:00 13,0 1,0 5 3 NO - 10 -
16.02.2019 17:00:00 13,0 0,0 16 9 O - 10 -
16.02.2019 16:00:00 14,0 1,3 13 7 O 1026,6 20 30
16.02.2019 15:00:00 14,0 -1,0 5 3 NNO - 10 -
16.02.2019 14:00:00 14,0 0,0 13 7 NE - 10 -
16.02.2019 13:00:00 14,0 -0,4 13 7 NE 1027,2 20 60
16.02.2019 12:00:00 13,0 -1,0 13 7 NE - 10 -
16.02.2019 11:00:00 13,0 -1,0 18 10 NE - 10 -
16.02.2019 10:00:00 11,0 0,1 15 8 NE 1026,7 20 60
16.02.2019 09:00:00 12,0 5,0 8 4 NNE - 10 -
16.02.2019 08:00:00 9,0 2,0 8 4 E - 10 -
16.02.2019 07:00:00 8,4 2,4 8 4 NNE 1024,9 10 0
16.02.2019 06:00:00 - - - - - - - -
16.02.2019 05:00:00 - - - - - - - -
16.02.2019 04:00:00 - - - - - - - -
16.02.2019 03:00:00 - - - - - - - -
16.02.2019 02:00:00 - - - - - - - -
16.02.2019 01:00:00 - - - - - - - -
16.02.2019 00:00:00 - - - - - - - -
15.02.2019 23:00:00 - - - - - - - -
15.02.2019 22:00:00 - - - - - - - -
15.02.2019 21:00:00 - - - - - - - -
15.02.2019 20:00:00 - - - - - - - -
15.02.2019 19:00:00 13,2 7,4 11 6 NE 1020,2 20 0
15.02.2019 18:00:00 14,0 8,0 9 5 NE - 10 -
15.02.2019 17:00:00 14,0 8,0 8 4 S - 10 -
15.02.2019 16:00:00 14,2 7,7 13 7 SSO 1021,0 20 60
15.02.2019 15:00:00 14,0 7,0 15 8 SO - 10 -
15.02.2019 14:00:00 14,0 6,0 11 6 ESE - 10 -
15.02.2019 13:00:00 14,0 5,6 11 6 SO 1023,4 20 54
15.02.2019 12:00:00 14,0 6,0 15 8 SSO - 10 -
15.02.2019 11:00:00 13,0 5,0 9 5 SSO - 10 -
15.02.2019 10:00:00 13,2 4,4 5 3 S 1025,3 22 60
15.02.2019 09:00:00 12,0 4,0 2 1 - - 10 -
15.02.2019 08:00:00 12,0 3,0 8 4 N - 10 -
15.02.2019 07:00:00 12,0 3,0 9 5 NNE 1025,4 20 -
15.02.2019 06:00:00 - - - - - - - -
15.02.2019 05:00:00 - - - - - - - -
15.02.2019 04:00:00 - - - - - - - -
15.02.2019 03:00:00 - - - - - - - -
15.02.2019 02:00:00 - - - - - - - -
15.02.2019 01:00:00 - - - - - - - -
15.02.2019 00:00:00 - - - - - - - -
14.02.2019 23:00:00 - - - - - - - -
14.02.2019 22:00:00 - - - - - - - -
14.02.2019 21:00:00 - - - - - - - -
14.02.2019 20:00:00 - - - - - - - -
14.02.2019 19:00:00 12,4 -1,2 8 4 NNO 1027,6 23 0
14.02.2019 18:00:00 14,0 0,0 5 3 NO - 10 -
14.02.2019 17:00:00 15,0 0,0 11 6 N - 10 -
14.02.2019 16:00:00 15,4 -0,4 11 6 NNO 1027,1 25 60
14.02.2019 15:00:00 16,0 -1,0 11 6 N - 10 -
14.02.2019 14:00:00 15,0 0,0 9 5 N - 10 -
14.02.2019 13:00:00 14,8 0,3 11 6 NNO 1028,3 25 60
14.02.2019 12:00:00 14,0 0,0 9 5 NO - 10 -
14.02.2019 11:00:00 12,0 1,0 11 6 O - 10 -
14.02.2019 10:00:00 11,4 1,9 5 3 O 1029,1 20 60
14.02.2019 09:00:00 9,0 2,0 4 2 O - 10 -
14.02.2019 08:00:00 9,0 1,0 4 2 NNO - 10 -
14.02.2019 07:00:00 8,6 1,5 8 4 ENE 1029,2 25 0
14.02.2019 06:00:00 - - - - - - - -
14.02.2019 05:00:00 - - - - - - - -
14.02.2019 04:00:00 - - - - - - - -
14.02.2019 03:00:00 - - - - - - - -
14.02.2019 02:00:00 - - - - - - - -
14.02.2019 01:00:00 - - - - - - - -
14.02.2019 00:00:00 - - - - - - - -
13.02.2019 23:00:00 - - - - - - - -
13.02.2019 22:00:00 - - - - - - - -
13.02.2019 21:00:00 - - - - - - - -
13.02.2019 20:00:00 - - - - - - - -
13.02.2019 19:00:00 11,0 -2,8 15 8 N 1025,7 15 0
13.02.2019 18:00:00 11,0 -3,0 16 9 NNE - 10 -
13.02.2019 17:00:00 12,0 -3,0 13 7 N - 10 -
13.02.2019 16:00:00 13,0 -2,1 18 10 N 1024,2 20 60
13.02.2019 15:00:00 13,0 -2,0 22 12 N - 10 -
13.02.2019 14:00:00 13,0 -2,0 31 17 N - 10 -
13.02.2019 13:00:00 13,0 -2,1 24 13 N 1025,4 25 60
13.02.2019 12:00:00 13,0 -3,0 21 11 N - 10 -
13.02.2019 11:00:00 13,0 -1,0 21 11 NNE - 10 -
13.02.2019 10:00:00 12,0 -1,5 11 6 N 1025,3 25 60
13.02.2019 09:00:00 11,0 -2,0 16 9 N - 10 -
13.02.2019 08:00:00 11,0 -1,0 15 8 N - 10 -
13.02.2019 07:00:00 9,8 -1,5 9 5 N 1024,2 18 0
13.02.2019 06:00:00 - - - - - - - -
13.02.2019 05:00:00 - - - - - - - -
13.02.2019 04:00:00 - - - - - - - -
13.02.2019 03:00:00 - - - - - - - -
13.02.2019 02:00:00 - - - - - - - -
13.02.2019 01:00:00 - - - - - - - -
13.02.2019 00:00:00 - - - - - - - -
12.02.2019 23:00:00 - - - - - - - -
12.02.2019 22:00:00 - - - - - - - -
12.02.2019 21:00:00 - - - - - - - -
12.02.2019 20:00:00 - - - - - - - -
12.02.2019 19:00:00 11,4 -0,4 11 6 NNO 1020,0 18 -
12.02.2019 18:00:00 12,0 -1,0 16 9 N - 10 -
12.02.2019 17:00:00 13,0 -1,0 16 9 NNE - 10 -
12.02.2019 16:00:00 13,8 1,1 21 11 N 1017,8 22 60
12.02.2019 15:00:00 13,0 0,0 16 9 N - 10 -
12.02.2019 14:00:00 14,0 1,0 22 12 N - 10 -
12.02.2019 13:00:00 14,0 2,3 16 9 NNE 1017,7 20 30
12.02.2019 12:00:00 13,0 3,0 15 8 NNE - 10 -
12.02.2019 11:00:00 11,0 5,0 5 3 O - 10 -
12.02.2019 10:00:00 11,0 5,1 11 6 NO 1017,3 20 6
12.02.2019 09:00:00 10,0 5,0 9 5 NNO - 10 -
12.02.2019 08:00:00 10,0 4,0 9 5 N - 10 -
12.02.2019 07:00:00 10,0 4,0 11 6 NNO 1016,3 20 -
12.02.2019 06:00:00 - - - - - - - -
12.02.2019 05:00:00 - - - - - - - -
12.02.2019 04:00:00 - - - - - - - -
12.02.2019 03:00:00 - - - - - - - -
12.02.2019 02:00:00 - - - - - - - -
12.02.2019 01:00:00 - - - - - - - -
12.02.2019 00:00:00 - - - - - - - -
11.02.2019 23:00:00 - - - - - - - -
11.02.2019 22:00:00 - - - - - - - -
11.02.2019 21:00:00 - - - - - - - -
11.02.2019 20:00:00 - - - - - - - -
11.02.2019 19:00:00 13,4 5,6 22 12 O 1015,5 15 0
11.02.2019 18:00:00 14,0 7,0 29 16 O - 10 -
11.02.2019 17:00:00 14,0 7,0 29 16 O - 10 -
11.02.2019 16:00:00 14,6 9,0 37 20 O 1015,2 12 60
11.02.2019 15:00:00 15,0 10,0 35 19 O - 10 -
11.02.2019 14:00:00 15,0 10,0 35 19 O - 9 -
11.02.2019 13:00:00 14,6 9,6 34 18 O 1016,2 9 60

tt = Temperatura
td = dewpoint
ff = velocità del vento
dd = direzione del vento
ppp = reduced air pressure
vv = visibility
sd = ore di luce

Stazioni seguenti

WeatherPro
AMSI
MeteoEarth